Year,Month,Day,Hour,Minute,Value (Times are PST for temperature in C)
2015,06,18,00,00,12.40
2015,06,18,00,01,12.40
2015,06,18,00,02,12.40
2015,06,18,00,03,12.40
2015,06,18,00,04,12.40
2015,06,18,00,05,12.40
2015,06,18,00,06,12.40
2015,06,18,00,07,12.40
2015,06,18,00,08,12.40
2015,06,18,00,09,12.40
2015,06,18,00,10,12.40
2015,06,18,00,11,12.40
2015,06,18,00,12,12.40
2015,06,18,00,13,12.40
2015,06,18,00,14,12.40
2015,06,18,00,15,12.40
2015,06,18,00,16,12.40
2015,06,18,00,17,12.40
2015,06,18,00,18,12.40
2015,06,18,00,19,12.40
2015,06,18,00,20,12.30
2015,06,18,00,21,12.30
2015,06,18,00,22,12.30
2015,06,18,00,23,12.30
2015,06,18,00,24,12.30
2015,06,18,00,25,12.30
2015,06,18,00,26,12.30
2015,06,18,00,27,12.30
2015,06,18,00,28,12.30
2015,06,18,00,29,12.30
2015,06,18,00,30,12.20
2015,06,18,00,31,12.20
2015,06,18,00,32,12.20
2015,06,18,00,33,12.20
2015,06,18,00,34,12.20
2015,06,18,00,35,12.20
2015,06,18,00,36,12.20
2015,06,18,00,37,12.20
2015,06,18,00,38,12.20
2015,06,18,00,39,12.20
2015,06,18,00,40,12.20
2015,06,18,00,41,12.10
2015,06,18,00,42,12.10
2015,06,18,00,43,12.10
2015,06,18,00,44,12.00
2015,06,18,00,45,12.00
2015,06,18,00,46,12.00
2015,06,18,00,47,11.90
2015,06,18,00,48,11.90
2015,06,18,00,49,11.90
2015,06,18,00,50,11.90
2015,06,18,00,51,11.90
2015,06,18,00,52,11.90
2015,06,18,00,53,11.90
2015,06,18,00,54,11.80
2015,06,18,00,55,11.80
2015,06,18,00,56,11.80
2015,06,18,00,57,11.80
2015,06,18,00,58,11.80
2015,06,18,00,59,11.70
2015,06,18,01,00,11.70
2015,06,18,01,01,11.70
2015,06,18,01,02,11.70
2015,06,18,01,03,11.70
2015,06,18,01,04,11.70
2015,06,18,01,05,11.70
2015,06,18,01,06,11.70
2015,06,18,01,07,11.70
2015,06,18,01,08,11.70
2015,06,18,01,09,11.70
2015,06,18,01,10,11.70
2015,06,18,01,11,11.70
2015,06,18,01,12,11.70
2015,06,18,01,13,11.70
2015,06,18,01,14,11.70
2015,06,18,01,15,11.70
2015,06,18,01,16,11.70
2015,06,18,01,17,11.60
2015,06,18,01,18,11.60
2015,06,18,01,19,11.60
2015,06,18,01,20,11.60
2015,06,18,01,21,11.50
2015,06,18,01,22,11.50
2015,06,18,01,23,11.40
2015,06,18,01,24,11.30
2015,06,18,01,25,11.30
2015,06,18,01,26,11.30
2015,06,18,01,27,11.20
2015,06,18,01,28,11.20
2015,06,18,01,29,11.20
2015,06,18,01,30,11.10
2015,06,18,01,31,11.10
2015,06,18,01,32,11.00
2015,06,18,01,33,11.00
2015,06,18,01,34,10.90
2015,06,18,01,35,10.90
2015,06,18,01,36,10.80
2015,06,18,01,37,10.80
2015,06,18,01,38,10.80
2015,06,18,01,39,10.80
2015,06,18,01,40,10.80
2015,06,18,01,41,10.80
2015,06,18,01,42,10.70
2015,06,18,01,43,10.70
2015,06,18,01,44,10.70
2015,06,18,01,45,10.70
2015,06,18,01,46,10.60
2015,06,18,01,47,10.60
2015,06,18,01,48,10.60
2015,06,18,01,49,10.60
2015,06,18,01,50,10.60
2015,06,18,01,51,10.60
2015,06,18,01,52,10.60
2015,06,18,01,53,10.60
2015,06,18,01,54,10.60
2015,06,18,01,55,10.60
2015,06,18,01,56,10.50
2015,06,18,01,57,10.50
2015,06,18,01,58,10.50
2015,06,18,01,59,10.40
2015,06,18,02,00,10.40
2015,06,18,02,01,10.40
2015,06,18,02,02,10.40
2015,06,18,02,03,10.40
2015,06,18,02,04,10.40
2015,06,18,02,05,10.40
2015,06,18,02,06,10.40
2015,06,18,02,07,10.50
2015,06,18,02,08,10.50
2015,06,18,02,09,10.50
2015,06,18,02,10,10.50
2015,06,18,02,11,10.50
2015,06,18,02,12,10.50
2015,06,18,02,13,10.40
2015,06,18,02,14,10.40
2015,06,18,02,15,10.40
2015,06,18,02,16,10.40
2015,06,18,02,17,10.40
2015,06,18,02,18,10.40
2015,06,18,02,19,10.30
2015,06,18,02,20,10.30
2015,06,18,02,21,10.30
2015,06,18,02,22,10.30
2015,06,18,02,23,10.20
2015,06,18,02,24,10.20
2015,06,18,02,25,10.20
2015,06,18,02,26,10.20
2015,06,18,02,27,10.20
2015,06,18,02,28,10.10
2015,06,18,02,29,10.10
2015,06,18,02,30,10.10
2015,06,18,02,31,10.10
2015,06,18,02,32,10.00
2015,06,18,02,33,10.00
2015,06,18,02,34,10.00
2015,06,18,02,35,10.00
2015,06,18,02,36,10.00
2015,06,18,02,37,10.00
2015,06,18,02,38,10.00
2015,06,18,02,39,10.00
2015,06,18,02,40,10.00
2015,06,18,02,41,10.00
2015,06,18,02,42,10.00
2015,06,18,02,43,10.00
2015,06,18,02,44,10.00
2015,06,18,02,45,10.00
2015,06,18,02,46,9.90
2015,06,18,02,47,9.90
2015,06,18,02,48,9.90
2015,06,18,02,49,9.90
2015,06,18,02,50,9.90
2015,06,18,02,51,9.90
2015,06,18,02,52,9.90
2015,06,18,02,53,9.80
2015,06,18,02,54,9.80
2015,06,18,02,55,9.80
2015,06,18,02,56,9.80
2015,06,18,02,57,9.80
2015,06,18,02,58,9.80
2015,06,18,02,59,9.80
2015,06,18,03,00,9.80
2015,06,18,03,01,9.80
2015,06,18,03,02,9.80
2015,06,18,03,03,9.80
2015,06,18,03,04,9.80
2015,06,18,03,05,9.80
2015,06,18,03,06,9.80
2015,06,18,03,07,9.80
2015,06,18,03,08,9.70
2015,06,18,03,09,9.70
2015,06,18,03,10,9.70
2015,06,18,03,11,9.70
2015,06,18,03,12,9.70
2015,06,18,03,13,9.60
2015,06,18,03,14,9.60
2015,06,18,03,15,9.60
2015,06,18,03,16,9.60
2015,06,18,03,17,9.50
2015,06,18,03,18,9.50
2015,06,18,03,19,9.50
2015,06,18,03,20,9.50
2015,06,18,03,21,9.40
2015,06,18,03,22,9.40
2015,06,18,03,23,9.40
2015,06,18,03,24,9.40
2015,06,18,03,25,9.40
2015,06,18,03,26,9.40
2015,06,18,03,27,9.30
2015,06,18,03,28,9.30
2015,06,18,03,29,9.30
2015,06,18,03,30,9.30
2015,06,18,03,31,9.30
2015,06,18,03,32,9.30
2015,06,18,03,33,9.30
2015,06,18,03,34,9.30
2015,06,18,03,35,9.30
2015,06,18,03,36,9.30
2015,06,18,03,37,9.30
2015,06,18,03,38,9.30
2015,06,18,03,39,9.20
2015,06,18,03,40,9.20
2015,06,18,03,41,9.20
2015,06,18,03,42,9.20
2015,06,18,03,43,9.20
2015,06,18,03,44,9.20
2015,06,18,03,45,9.20
2015,06,18,03,46,9.20
2015,06,18,03,47,9.20
2015,06,18,03,48,9.20
2015,06,18,03,49,9.20
2015,06,18,03,50,9.20
2015,06,18,03,51,9.20
2015,06,18,03,52,9.20
2015,06,18,03,53,9.20
2015,06,18,03,54,9.20
2015,06,18,03,55,9.20
2015,06,18,03,56,9.20
2015,06,18,03,57,9.20
2015,06,18,03,58,9.20
2015,06,18,03,59,9.20
2015,06,18,04,00,9.20
2015,06,18,04,01,9.20
2015,06,18,04,02,9.20
2015,06,18,04,03,9.20
2015,06,18,04,04,9.20
2015,06,18,04,05,9.10
2015,06,18,04,06,9.10
2015,06,18,04,07,9.10
2015,06,18,05,02,8.70
2015,06,18,05,03,8.70
2015,06,18,05,04,8.70
2015,06,18,05,05,8.70
2015,06,18,05,06,8.70
2015,06,18,05,07,8.70
2015,06,18,05,08,8.70
2015,06,18,05,09,8.70
2015,06,18,05,10,8.70
2015,06,18,05,11,8.70
2015,06,18,05,12,8.80
2015,06,18,05,13,8.80
2015,06,18,05,14,8.80
2015,06,18,05,15,8.80
2015,06,18,05,16,8.80
2015,06,18,05,17,8.80
2015,06,18,05,18,8.80
2015,06,18,05,19,8.80
2015,06,18,05,20,8.80
2015,06,18,05,21,8.80
2015,06,18,05,22,8.80
2015,06,18,05,23,8.80
2015,06,18,05,24,8.80
2015,06,18,05,25,8.80
2015,06,18,05,26,8.80
2015,06,18,05,27,8.80
2015,06,18,05,28,8.80
2015,06,18,05,29,8.80
2015,06,18,05,30,8.80
2015,06,18,05,31,8.80
2015,06,18,05,32,8.80
2015,06,18,05,33,8.80
2015,06,18,05,34,8.80
2015,06,18,05,35,8.80
2015,06,18,05,36,8.80
2015,06,18,05,37,8.80
2015,06,18,05,38,8.80
2015,06,18,05,39,8.80
2015,06,18,05,40,8.80
2015,06,18,05,41,8.80
2015,06,18,05,42,8.80
2015,06,18,05,43,8.80
2015,06,18,05,44,8.80
2015,06,18,05,45,8.80
2015,06,18,05,46,8.80
2015,06,18,05,47,8.90
2015,06,18,05,48,8.90
2015,06,18,05,49,8.90
2015,06,18,05,50,8.90
2015,06,18,05,51,9.00
2015,06,18,05,52,9.00
2015,06,18,05,53,9.10
2015,06,18,05,54,9.10
2015,06,18,05,55,9.20
2015,06,18,05,56,9.20
2015,06,18,05,57,9.20
2015,06,18,05,58,9.30
2015,06,18,05,59,9.30
2015,06,18,06,00,9.40
2015,06,18,06,01,9.40
2015,06,18,06,02,9.40
2015,06,18,06,03,9.50
2015,06,18,06,04,9.50
2015,06,18,06,05,9.50
2015,06,18,06,06,9.50
2015,06,18,06,07,9.50
2015,06,18,06,08,9.50
2015,06,18,06,09,9.50
2015,06,18,06,10,9.50
2015,06,18,06,11,9.50
2015,06,18,06,12,9.50
2015,06,18,06,13,9.50
2015,06,18,06,14,9.60
2015,06,18,06,15,9.60
2015,06,18,06,16,9.60
2015,06,18,06,17,9.60
2015,06,18,06,18,9.70
2015,06,18,06,19,9.70
2015,06,18,06,20,9.70
2015,06,18,06,21,9.80
2015,06,18,06,22,9.80
2015,06,18,06,23,9.90
2015,06,18,06,24,9.90
2015,06,18,06,25,10.00
2015,06,18,06,26,10.10
2015,06,18,06,27,10.10
2015,06,18,06,28,10.10
2015,06,18,06,29,10.20
2015,06,18,06,30,10.20
2015,06,18,06,31,10.20
2015,06,18,06,32,10.20
2015,06,18,06,33,10.30
2015,06,18,06,34,10.30
2015,06,18,06,35,10.30
2015,06,18,06,36,10.40
2015,06,18,06,37,10.40
2015,06,18,06,38,10.40
2015,06,18,06,39,10.50
2015,06,18,06,40,10.50
2015,06,18,06,41,10.60
2015,06,18,06,42,10.60
2015,06,18,06,43,10.70
2015,06,18,06,44,10.70
2015,06,18,06,45,10.70
2015,06,18,06,46,10.80
2015,06,18,06,47,10.80
2015,06,18,06,48,10.80
2015,06,18,06,49,10.80
2015,06,18,06,50,10.90
2015,06,18,06,51,10.90
2015,06,18,06,52,10.90
2015,06,18,06,53,11.00
2015,06,18,06,54,11.10
2015,06,18,06,55,11.10
2015,06,18,06,56,11.10
2015,06,18,06,57,11.20
2015,06,18,06,58,11.20
2015,06,18,06,59,11.30
2015,06,18,07,00,11.30
2015,06,18,07,01,11.30
2015,06,18,07,02,11.40
2015,06,18,07,03,11.40
2015,06,18,07,04,11.40
2015,06,18,07,05,11.50
2015,06,18,07,06,11.50
2015,06,18,07,07,11.60
2015,06,18,07,08,11.60
2015,06,18,07,09,11.60
2015,06,18,07,10,11.70
2015,06,18,07,11,11.80
2015,06,18,07,12,11.80
2015,06,18,07,13,11.80
2015,06,18,07,14,11.90
2015,06,18,07,15,12.00
2015,06,18,07,16,12.00
2015,06,18,07,17,12.10
2015,06,18,07,18,12.10
2015,06,18,07,19,12.10
2015,06,18,07,20,12.20
2015,06,18,07,21,12.30
2015,06,18,07,22,12.30
2015,06,18,07,23,12.40
2015,06,18,07,24,12.40
2015,06,18,07,25,12.40
2015,06,18,07,26,12.40
2015,06,18,07,27,12.50
2015,06,18,07,28,12.50
2015,06,18,07,29,12.50
2015,06,18,07,30,12.60
2015,06,18,07,31,12.60
2015,06,18,07,32,12.60
2015,06,18,07,33,12.60
2015,06,18,07,34,12.70
2015,06,18,07,35,12.70
2015,06,18,07,36,12.70
2015,06,18,07,37,12.70
2015,06,18,07,38,12.70
2015,06,18,07,39,12.70
2015,06,18,07,40,12.80
2015,06,18,07,41,12.80
2015,06,18,07,42,12.80
2015,06,18,07,43,12.80
2015,06,18,07,44,12.80
2015,06,18,07,45,12.80
2015,06,18,07,46,12.90
2015,06,18,07,47,12.90
2015,06,18,07,48,12.90
2015,06,18,07,49,12.90
2015,06,18,07,50,13.00
2015,06,18,07,51,13.00
2015,06,18,07,52,13.10
2015,06,18,07,53,13.10
2015,06,18,07,54,13.10
2015,06,18,07,55,13.10
2015,06,18,07,56,13.10
2015,06,18,07,57,13.10
2015,06,18,07,58,13.10
2015,06,18,07,59,13.10
2015,06,18,08,00,13.10
2015,06,18,08,01,13.10
2015,06,18,08,02,13.10
2015,06,18,08,03,13.10
2015,06,18,08,04,13.10
2015,06,18,08,05,13.10
2015,06,18,08,06,13.20
2015,06,18,08,07,13.20
2015,06,18,08,08,13.20
2015,06,18,08,09,13.20
2015,06,18,08,10,13.20
2015,06,18,08,11,13.20
2015,06,18,08,12,13.20
2015,06,18,08,13,13.20
2015,06,18,08,14,13.20
2015,06,18,08,15,13.20
2015,06,18,08,16,13.20
2015,06,18,08,17,13.30
2015,06,18,08,18,13.30
2015,06,18,08,19,13.30
2015,06,18,08,20,13.30
2015,06,18,08,21,13.30
2015,06,18,08,22,13.40
2015,06,18,08,23,13.40
2015,06,18,08,24,13.50
2015,06,18,08,25,13.50
2015,06,18,08,26,13.60
2015,06,18,08,27,13.70
2015,06,18,08,28,13.70
2015,06,18,08,29,13.70
2015,06,18,08,30,13.80
2015,06,18,08,31,13.80
2015,06,18,08,32,13.80
2015,06,18,08,33,13.80
2015,06,18,08,34,13.70
2015,06,18,08,35,13.70
2015,06,18,08,36,13.60
2015,06,18,08,37,13.60
2015,06,18,08,38,13.60
2015,06,18,08,39,13.50
2015,06,18,08,40,13.50
2015,06,18,08,41,13.50
2015,06,18,08,42,13.50
2015,06,18,08,43,13.50
2015,06,18,08,44,13.50
2015,06,18,08,45,13.40
2015,06,18,08,46,13.40
2015,06,18,08,47,13.40
2015,06,18,08,48,13.40
2015,06,18,08,49,13.50
2015,06,18,08,50,13.50
2015,06,18,08,51,13.50
2015,06,18,08,52,13.50
2015,06,18,08,53,13.50
2015,06,18,08,54,13.50
2015,06,18,08,55,13.50
2015,06,18,08,56,13.50
2015,06,18,08,57,13.50
2015,06,18,08,58,13.40
2015,06,18,08,59,13.40
2015,06,18,09,00,13.40
2015,06,18,09,01,13.50
2015,06,18,09,02,13.40
2015,06,18,09,03,13.50
2015,06,18,09,04,13.50
2015,06,18,09,05,13.50
2015,06,18,09,06,13.50
2015,06,18,09,07,13.50
2015,06,18,09,08,13.60
2015,06,18,09,09,13.60
2015,06,18,09,10,13.60
2015,06,18,09,11,13.60
2015,06,18,09,12,13.70
2015,06,18,09,13,13.70
2015,06,18,09,14,13.70
2015,06,18,09,15,13.70
2015,06,18,09,16,13.70
2015,06,18,09,17,13.70
2015,06,18,09,18,13.70
2015,06,18,09,19,13.70
2015,06,18,09,20,13.70
2015,06,18,09,21,13.70
2015,06,18,09,22,13.80
2015,06,18,09,23,13.90
2015,06,18,09,24,14.00
2015,06,18,09,25,14.00
2015,06,18,09,26,14.10
2015,06,18,09,27,14.20
2015,06,18,09,28,14.30
2015,06,18,09,29,14.40
2015,06,18,09,30,14.40
2015,06,18,09,31,14.50
2015,06,18,09,32,14.50
2015,06,18,09,33,14.60
2015,06,18,09,34,14.60
2015,06,18,09,35,14.60
2015,06,18,09,36,14.60
2015,06,18,09,37,14.50
2015,06,18,09,38,14.50
2015,06,18,09,39,14.40
2015,06,18,09,40,14.40
2015,06,18,09,41,14.40
2015,06,18,09,42,14.40
2015,06,18,09,43,14.30
2015,06,18,09,44,14.30
2015,06,18,09,45,14.30
2015,06,18,09,46,14.30
2015,06,18,09,47,14.30
2015,06,18,09,48,14.30
2015,06,18,09,49,14.20
2015,06,18,09,50,14.20
2015,06,18,09,51,14.20
2015,06,18,09,52,14.20
2015,06,18,09,53,14.20
2015,06,18,09,54,14.20
2015,06,18,09,55,14.20
2015,06,18,09,56,14.20
2015,06,18,09,57,14.10
2015,06,18,09,58,14.10
2015,06,18,09,59,14.20
2015,06,18,10,00,14.20
2015,06,18,10,01,14.20
2015,06,18,10,02,14.20
2015,06,18,10,03,14.30
2015,06,18,10,04,14.40
2015,06,18,10,05,14.50
2015,06,18,10,06,14.60
2015,06,18,10,07,14.70
2015,06,18,10,08,14.80
2015,06,18,10,09,14.80
2015,06,18,10,10,14.80
2015,06,18,10,11,14.90
2015,06,18,10,12,14.90
2015,06,18,10,13,14.90
2015,06,18,10,14,14.90
2015,06,18,10,15,14.80
2015,06,18,10,16,14.80
2015,06,18,10,17,14.80
2015,06,18,10,18,14.70
2015,06,18,10,19,14.70
2015,06,18,10,20,14.60
2015,06,18,10,21,14.60
2015,06,18,10,22,14.50
2015,06,18,10,23,14.50
2015,06,18,10,24,14.50
2015,06,18,10,25,14.50
2015,06,18,10,26,14.50
2015,06,18,10,27,14.50
2015,06,18,10,28,14.60
2015,06,18,10,29,14.60
2015,06,18,10,30,14.60
2015,06,18,10,31,14.70
2015,06,18,10,32,14.70
2015,06,18,10,33,14.80
2015,06,18,10,34,14.80
2015,06,18,10,35,14.80
2015,06,18,10,36,14.80
2015,06,18,10,37,14.90
2015,06,18,10,38,14.90
2015,06,18,10,39,14.90
2015,06,18,10,40,14.90
2015,06,18,10,41,14.90
2015,06,18,10,42,15.00
2015,06,18,10,43,15.00
2015,06,18,10,44,15.00
2015,06,18,10,45,15.00
2015,06,18,10,46,15.10
2015,06,18,10,47,15.10
2015,06,18,10,48,15.00
2015,06,18,10,49,15.00
2015,06,18,10,50,14.90
2015,06,18,10,51,14.90
2015,06,18,10,52,14.90
2015,06,18,10,53,14.80
2015,06,18,10,54,14.70
2015,06,18,10,55,14.70
2015,06,18,10,56,14.70
2015,06,18,10,57,14.60
2015,06,18,10,58,14.60
2015,06,18,10,59,14.60
2015,06,18,11,00,14.60
2015,06,18,11,01,14.60
2015,06,18,11,02,14.60
2015,06,18,11,03,14.60
2015,06,18,11,04,14.60
2015,06,18,11,05,14.50
2015,06,18,11,06,14.40
2015,06,18,11,07,14.40
2015,06,18,11,08,14.30
2015,06,18,11,09,14.30
2015,06,18,11,10,14.30
2015,06,18,11,11,14.30
2015,06,18,11,12,14.20
2015,06,18,11,13,14.20
2015,06,18,11,14,14.10
2015,06,18,11,15,14.10
2015,06,18,11,16,14.00
2015,06,18,11,17,13.90
2015,06,18,11,18,13.90
2015,06,18,11,19,13.90
2015,06,18,11,20,13.80
2015,06,18,11,21,13.80
2015,06,18,11,22,13.70
2015,06,18,11,23,13.70
2015,06,18,11,24,13.70
2015,06,18,11,25,13.70
2015,06,18,11,26,13.60
2015,06,18,11,27,13.60
2015,06,18,11,28,13.60
2015,06,18,11,29,13.50
2015,06,18,11,30,13.40
2015,06,18,11,31,13.40
2015,06,18,11,32,13.40
2015,06,18,11,33,13.40
2015,06,18,11,34,13.30
2015,06,18,11,35,13.30
2015,06,18,11,36,13.30
2015,06,18,11,37,13.30
2015,06,18,11,38,13.30
2015,06,18,11,39,13.30
2015,06,18,11,40,13.30
2015,06,18,11,41,13.30
2015,06,18,11,42,13.30
2015,06,18,11,43,13.30
2015,06,18,11,44,13.30
2015,06,18,11,45,13.30
2015,06,18,11,46,13.30
2015,06,18,11,47,13.30
2015,06,18,11,48,13.30
2015,06,18,11,49,13.20
2015,06,18,11,50,13.20
2015,06,18,11,51,13.20
2015,06,18,11,52,13.30
2015,06,18,11,53,13.30
2015,06,18,11,54,13.30
2015,06,18,11,55,13.30
2015,06,18,11,56,13.40
2015,06,18,11,57,13.40
2015,06,18,11,58,13.50
2015,06,18,11,59,13.50
2015,06,18,12,00,13.60
2015,06,18,12,01,13.60
2015,06,18,12,02,13.70
2015,06,18,12,03,13.70
2015,06,18,12,04,13.70
2015,06,18,12,05,13.70
2015,06,18,12,06,13.80
2015,06,18,12,07,13.80
2015,06,18,12,08,13.80
2015,06,18,12,09,13.80
2015,06,18,12,10,13.90
2015,06,18,12,11,13.90
2015,06,18,12,12,13.90
2015,06,18,12,13,13.90
2015,06,18,12,14,13.90
2015,06,18,12,15,14.00
2015,06,18,12,16,14.10
2015,06,18,12,17,14.10
2015,06,18,12,18,14.10
2015,06,18,12,19,14.20
2015,06,18,12,20,14.20
2015,06,18,12,21,14.20
2015,06,18,12,22,14.20
2015,06,18,12,23,14.20
2015,06,18,12,24,14.20
2015,06,18,12,25,14.30
2015,06,18,12,26,14.40
2015,06,18,12,27,14.50
2015,06,18,12,28,14.50
2015,06,18,12,29,14.60
2015,06,18,12,30,14.70
2015,06,18,12,31,14.80
2015,06,18,12,32,14.80
2015,06,18,12,33,14.80
2015,06,18,12,34,14.90
2015,06,18,12,35,14.90
2015,06,18,12,36,14.90
2015,06,18,12,37,14.90
2015,06,18,12,38,14.90
2015,06,18,12,39,14.90
2015,06,18,12,40,15.00
2015,06,18,12,41,15.10
2015,06,18,12,42,15.20
2015,06,18,12,43,15.30
2015,06,18,12,44,15.40
2015,06,18,12,45,15.40
2015,06,18,12,46,15.50
2015,06,18,12,47,15.60
2015,06,18,12,48,15.60
2015,06,18,12,49,15.70
2015,06,18,12,50,15.70
2015,06,18,12,51,15.70
2015,06,18,12,52,15.70
2015,06,18,12,53,15.70
2015,06,18,12,54,15.70
2015,06,18,12,55,15.80
2015,06,18,12,56,15.80
2015,06,18,12,57,15.80
2015,06,18,12,58,15.80
2015,06,18,12,59,15.80
2015,06,18,13,00,15.90
2015,06,18,13,01,16.00
2015,06,18,13,02,16.00
2015,06,18,13,03,16.10
2015,06,18,13,04,16.10
2015,06,18,13,05,16.20
2015,06,18,13,06,16.20
2015,06,18,13,07,16.20
2015,06,18,13,08,16.30
2015,06,18,13,09,16.40
2015,06,18,13,10,16.40
2015,06,18,13,11,16.50
2015,06,18,13,12,16.50
2015,06,18,13,13,16.60
2015,06,18,13,14,16.60
2015,06,18,13,15,16.70
2015,06,18,13,16,16.80
2015,06,18,13,17,16.80
2015,06,18,13,18,16.90
2015,06,18,13,19,16.90
2015,06,18,13,20,16.90
2015,06,18,13,21,16.90
2015,06,18,13,22,16.90
2015,06,18,13,23,16.90
2015,06,18,13,24,17.00
2015,06,18,13,25,17.00
2015,06,18,13,26,17.10
2015,06,18,13,27,17.10
2015,06,18,13,28,17.20
2015,06,18,13,29,17.30
2015,06,18,13,30,17.50
2015,06,18,13,31,17.70
2015,06,18,13,32,17.80
2015,06,18,13,33,17.80
2015,06,18,13,34,17.90
2015,06,18,13,35,17.80
2015,06,18,13,36,17.80
2015,06,18,13,37,17.80
2015,06,18,13,38,17.90
2015,06,18,13,39,17.90
2015,06,18,13,40,17.90
2015,06,18,13,41,18.00
2015,06,18,13,42,18.00
2015,06,18,13,43,18.10
2015,06,18,13,44,18.10
2015,06,18,13,45,18.10
2015,06,18,13,46,18.10
2015,06,18,13,47,18.20
2015,06,18,13,48,18.20
2015,06,18,13,49,18.10
2015,06,18,13,50,18.10
2015,06,18,13,51,18.10
2015,06,18,13,52,18.00
2015,06,18,13,53,18.00
2015,06,18,13,54,18.00
2015,06,18,13,55,17.90
2015,06,18,13,56,17.90
2015,06,18,13,57,17.90
2015,06,18,13,58,17.80
2015,06,18,13,59,17.80
2015,06,18,14,00,17.70
2015,06,18,14,01,17.60
2015,06,18,14,02,17.60
2015,06,18,14,03,17.50
2015,06,18,14,04,17.40
2015,06,18,14,05,17.40
2015,06,18,14,06,17.40
2015,06,18,14,07,17.30
2015,06,18,14,08,17.30
2015,06,18,14,09,17.30
2015,06,18,14,10,17.20
2015,06,18,14,11,17.20
2015,06,18,14,12,17.00
2015,06,18,14,13,16.90
2015,06,18,14,14,16.80
2015,06,18,14,15,16.70
2015,06,18,14,16,16.60
2015,06,18,14,17,16.50
2015,06,18,14,18,16.40
2015,06,18,14,19,16.20
2015,06,18,14,20,16.00
2015,06,18,14,21,15.80
2015,06,18,14,22,15.60
2015,06,18,14,23,15.40
2015,06,18,14,24,15.20
2015,06,18,14,25,15.10
2015,06,18,14,26,15.00
2015,06,18,14,27,14.90
2015,06,18,14,28,14.90
2015,06,18,14,29,14.80
2015,06,18,14,30,14.80
2015,06,18,14,31,14.70
2015,06,18,14,32,14.60
2015,06,18,14,33,14.60
2015,06,18,14,34,14.60
2015,06,18,14,35,14.50
2015,06,18,14,36,14.60
2015,06,18,14,37,14.50
2015,06,18,14,38,14.50
2015,06,18,14,39,14.50
2015,06,18,14,40,14.60
2015,06,18,14,41,14.60
2015,06,18,14,42,14.60
2015,06,18,14,43,14.60
2015,06,18,14,44,14.60
2015,06,18,14,45,14.60
2015,06,18,14,46,14.60
2015,06,18,14,47,14.60
2015,06,18,14,48,14.50
2015,06,18,14,49,14.50
2015,06,18,14,50,14.40
2015,06,18,14,51,14.40
2015,06,18,14,52,14.40
2015,06,18,14,53,14.40
2015,06,18,14,54,14.30
2015,06,18,14,55,14.30
2015,06,18,14,56,14.30
2015,06,18,14,57,14.30
2015,06,18,14,58,14.20
2015,06,18,14,59,14.20
2015,06,18,15,00,14.20
2015,06,18,15,01,14.20
2015,06,18,15,02,14.20
2015,06,18,15,03,14.10
2015,06,18,15,04,14.10
2015,06,18,15,05,14.10
2015,06,18,15,06,14.00
2015,06,18,15,07,14.00
2015,06,18,15,08,14.00
2015,06,18,15,09,14.00
2015,06,18,15,10,14.00
2015,06,18,15,11,13.90
2015,06,18,15,12,13.80
2015,06,18,15,13,13.80
2015,06,18,15,14,13.80
2015,06,18,15,15,13.70
2015,06,18,15,16,13.70
2015,06,18,15,17,13.70
2015,06,18,15,18,13.70
2015,06,18,15,19,13.70
2015,06,18,15,20,13.70
2015,06,18,15,21,13.70
2015,06,18,15,22,13.70
2015,06,18,15,23,13.70
2015,06,18,15,24,13.60
2015,06,18,15,25,13.60
2015,06,18,15,26,13.60
2015,06,18,15,27,13.60
2015,06,18,15,28,13.60
2015,06,18,15,29,13.60
2015,06,18,15,30,13.60
2015,06,18,15,31,13.70
2015,06,18,15,32,13.70
2015,06,18,15,33,13.70
2015,06,18,15,34,13.70
2015,06,18,15,35,13.70
2015,06,18,15,36,13.70
2015,06,18,15,37,13.60
2015,06,18,15,38,13.60
2015,06,18,15,39,13.60
2015,06,18,15,40,13.60
2015,06,18,15,41,13.60
2015,06,18,15,42,13.60
2015,06,18,15,43,13.60
2015,06,18,15,44,13.60
2015,06,18,15,45,13.70
2015,06,18,15,46,13.70
2015,06,18,15,47,13.70
2015,06,18,15,48,13.70
2015,06,18,15,49,13.70
2015,06,18,15,50,13.70
2015,06,18,15,51,13.70
2015,06,18,15,52,13.70
2015,06,18,15,53,13.70
2015,06,18,15,54,13.70
2015,06,18,15,55,13.70
2015,06,18,15,56,13.70
2015,06,18,15,57,13.70
2015,06,18,15,58,13.60
2015,06,18,15,59,13.50
2015,06,18,16,00,13.50
2015,06,18,16,01,13.40
2015,06,18,16,02,13.30
2015,06,18,16,03,13.30
2015,06,18,16,04,13.20
2015,06,18,16,05,13.20
2015,06,18,16,06,13.20
2015,06,18,16,07,13.20
2015,06,18,16,08,13.10
2015,06,18,16,09,13.10
2015,06,18,16,10,13.00
2015,06,18,16,11,13.10
2015,06,18,16,12,13.10
2015,06,18,16,13,13.10
2015,06,18,16,14,13.10
2015,06,18,16,15,13.10
2015,06,18,16,16,13.10
2015,06,18,16,17,13.10
2015,06,18,16,18,13.10
2015,06,18,16,19,13.10
2015,06,18,16,20,13.10
2015,06,18,16,21,13.10
2015,06,18,16,22,13.10
2015,06,18,16,23,13.10
2015,06,18,16,24,13.00
2015,06,18,16,25,13.00
2015,06,18,16,26,13.00
2015,06,18,16,27,13.00
2015,06,18,16,28,13.10
2015,06,18,16,29,13.10
2015,06,18,16,30,13.10
2015,06,18,16,31,13.10
2015,06,18,16,32,13.10
2015,06,18,16,33,13.10
2015,06,18,16,34,13.20
2015,06,18,16,35,13.20
2015,06,18,16,36,13.20
2015,06,18,16,37,13.20
2015,06,18,16,38,13.20
2015,06,18,16,39,13.20
2015,06,18,16,40,13.10
2015,06,18,16,41,13.10
2015,06,18,16,42,13.10
2015,06,18,16,43,13.10
2015,06,18,16,44,13.10
2015,06,18,16,45,13.10
2015,06,18,16,46,13.10
2015,06,18,16,47,13.10
2015,06,18,16,48,13.10
2015,06,18,16,49,13.10
2015,06,18,16,50,13.10
2015,06,18,16,51,13.10
2015,06,18,16,52,13.10
2015,06,18,16,53,13.10
2015,06,18,16,54,13.10
2015,06,18,16,55,13.10
2015,06,18,16,56,13.10
2015,06,18,16,57,13.20
2015,06,18,16,58,13.20
2015,06,18,16,59,13.20
2015,06,18,17,00,13.20
2015,06,18,17,01,13.10
2015,06,18,17,02,13.10
2015,06,18,17,03,13.00
2015,06,18,17,04,13.00
2015,06,18,17,05,13.00
2015,06,18,17,06,12.90
2015,06,18,17,07,12.90
2015,06,18,17,08,12.90
2015,06,18,17,09,12.90
2015,06,18,17,10,12.90
2015,06,18,17,11,12.90
2015,06,18,17,12,12.90
2015,06,18,17,13,13.00
2015,06,18,17,14,13.00
2015,06,18,17,15,13.00
2015,06,18,17,16,13.00
2015,06,18,17,17,13.00
2015,06,18,17,18,13.00
2015,06,18,17,19,12.90
2015,06,18,17,20,12.90
2015,06,18,17,21,12.90
2015,06,18,17,22,12.90
2015,06,18,17,23,12.90
2015,06,18,17,24,12.90
2015,06,18,17,25,12.90
2015,06,18,17,26,12.90
2015,06,18,17,27,12.90
2015,06,18,17,28,12.90
2015,06,18,17,29,12.80
2015,06,18,17,30,12.80
2015,06,18,17,31,12.80
2015,06,18,17,32,12.80
2015,06,18,17,33,12.80
2015,06,18,17,34,12.80
2015,06,18,17,35,12.80
2015,06,18,17,36,12.80
2015,06,18,17,37,12.70
2015,06,18,17,38,12.70
2015,06,18,17,39,12.70
2015,06,18,17,40,12.70
2015,06,18,17,41,12.70
2015,06,18,17,42,12.70
2015,06,18,17,43,12.70
2015,06,18,17,44,12.70
2015,06,18,17,45,12.70
2015,06,18,17,46,12.70
2015,06,18,17,47,12.70
2015,06,18,17,48,12.70
2015,06,18,17,49,12.70
2015,06,18,17,50,12.80
2015,06,18,17,51,12.80
2015,06,18,17,52,12.70
2015,06,18,17,53,12.70
2015,06,18,17,54,12.80
2015,06,18,17,55,12.80
2015,06,18,17,56,12.80
2015,06,18,17,57,12.80
2015,06,18,17,58,12.80
2015,06,18,17,59,12.80
2015,06,18,18,00,12.80
2015,06,18,18,01,12.80
2015,06,18,18,02,12.80
2015,06,18,18,03,12.80
2015,06,18,18,04,12.80
2015,06,18,18,05,12.80
2015,06,18,18,06,12.90
2015,06,18,18,07,12.90
2015,06,18,18,08,12.90
2015,06,18,18,09,12.90
2015,06,18,18,10,12.90
2015,06,18,18,11,12.90
2015,06,18,18,12,12.80
2015,06,18,18,13,12.80
2015,06,18,18,14,12.80
2015,06,18,18,15,12.80
2015,06,18,18,16,12.80
2015,06,18,18,17,12.80
2015,06,18,18,18,12.80
2015,06,18,18,19,12.80
2015,06,18,18,20,12.80